Weather reports worldwide

Advertisment
Bergamo/Orio al Serio, Italy (16076): temperature & dewpoint: 21.02.2020 15:00:00 - 27.02.2020 15:00:00 (CET)Bergamo/Orio al Serio, Italy (16076): wind speed: 21.02.2020 15:00:00 - 27.02.2020 15:00:00 (CET)Bergamo/Orio al Serio, Italy (16076): wind direction: 21.02.2020 15:00:00 - 27.02.2020 15:00:00 (CET)Bergamo/Orio al Serio, Italy (16076): reduced air pressure: 21.02.2020 15:00:00 - 27.02.2020 15:00:00 (CET)Bergamo/Orio al Serio, Italy (16076): visibility: 21.02.2020 15:00:00 - 27.02.2020 15:00:00 (CET)Bergamo/Orio al Serio, Italy (16076): precipitation: 21.02.2020 15:00:00 - 27.02.2020 15:00:00 (CET)
Date & Time tt [°C] td [°C] ff [km/h] ff [kn] dd ppp [hPa] vv [km] rr [mm]
27.02.2020 15:00:00 10,0 -11,0 4 2 - - 10 -
27.02.2020 14:00:00 10,0 -11,0 8 4 SSE - 10 -
27.02.2020 13:00:00 10,4 -8,8 8 4 SSW 1009,5 20 -
27.02.2020 12:00:00 10,0 -9,0 4 2 - - 10 -
27.02.2020 11:00:00 9,0 -9,0 8 4 SSE - 10 -
27.02.2020 10:00:00 7,4 -10,7 5 3 E 1011,8 10 0,0
27.02.2020 09:00:00 5,0 -10,0 5 3 NE - 10 -
27.02.2020 08:00:00 1,0 -9,0 5 3 NNE - 10 -
27.02.2020 07:00:00 1,3 -10,3 4 2 - 1010,5 10 -
27.02.2020 06:00:00 3,0 -10,0 8 4 N - 10 -
27.02.2020 05:00:00 4,0 -12,0 4 2 - - 10 -
27.02.2020 04:00:00 3,4 -10,1 2 1 - 1009,8 10 0,0
27.02.2020 03:00:00 4,0 -10,0 11 6 WNW - 10 -
27.02.2020 02:00:00 6,0 -10,0 15 8 WNW - 10 -
27.02.2020 01:00:00 5,6 -11,0 13 7 WNW 1008,8 10 -
27.02.2020 00:00:00 6,0 -11,0 16 9 WNW - 10 -
26.02.2020 23:00:00 7,0 -12,0 16 9 WNW - 10 -
26.02.2020 22:00:00 7,8 -15,2 18 10 WNW 1005,8 10 0,0
26.02.2020 21:00:00 6,0 -12,0 16 9 W - 10 -
26.02.2020 20:00:00 8,0 -15,0 21 11 WNW - 10 -
26.02.2020 19:00:00 9,2 -17,0 22 12 WNW 1001,6 10 -
26.02.2020 18:00:00 11,0 -19,0 21 11 WNW - 10 -
26.02.2020 17:00:00 12,0 -21,0 28 15 NW - 10 -
26.02.2020 16:00:00 12,6 -17,4 28 15 NW 997,0 10 0,0
26.02.2020 15:00:00 13,0 -13,0 24 13 WNW - 10 -
26.02.2020 14:00:00 11,0 -10,0 35 19 NW - 10 -
26.02.2020 13:00:00 12,8 -8,8 39 21 W 996,7 10 -
26.02.2020 12:00:00 13,0 0,0 29 16 WSW - 8 -
26.02.2020 11:00:00 12,0 3,0 28 15 WSW - 7 -
26.02.2020 10:00:00 10,8 5,1 16 9 WSW 997,8 7 0,0
26.02.2020 09:00:00 8,0 6,0 5 3 W - 6 -
26.02.2020 08:00:00 6,0 5,0 13 7 W - 4,0 -
26.02.2020 07:00:00 4,1 3,0 8 4 N 998,3 8 -
26.02.2020 06:00:00 4,0 3,0 4 2 - - 8 -
26.02.2020 05:00:00 7,0 5,0 5 3 WSW - 8 -
26.02.2020 04:00:00 6,0 4,4 4 2 - 999,1 8 0,0
26.02.2020 03:00:00 7,0 5,0 5 3 NNW - 8 -
26.02.2020 02:00:00 7,0 5,0 4 2 NNW - 8 -
26.02.2020 01:00:00 8,6 6,2 4 2 - 1001,8 8 -
26.02.2020 00:00:00 9,0 8,0 4 2 N - 8 -
25.02.2020 23:00:00 9,0 8,0 2 1 - - 10 -
25.02.2020 22:00:00 9,8 7,3 2 1 - 1004,1 10 0,0
25.02.2020 21:00:00 9,0 6,0 2 1 - - 10 -
25.02.2020 20:00:00 11,0 7,0 8 4 W - 10 -
25.02.2020 19:00:00 12,2 7,0 13 7 W 1005,6 10 -
25.02.2020 18:00:00 12,0 7,0 11 6 W - 10 -
25.02.2020 17:00:00 13,0 7,0 13 7 W - 10 -
25.02.2020 16:00:00 13,6 7,6 15 8 W 1006,9 8 0,0
25.02.2020 15:00:00 14,0 8,0 11 6 WNW - 6 -
25.02.2020 14:00:00 13,0 8,0 11 6 W - 4,5 -
25.02.2020 13:00:00 13,1 8,5 5 3 W 1009,5 4,5 -
25.02.2020 12:00:00 12,0 8,0 2 1 - - 4,0 -
25.02.2020 11:00:00 11,0 7,0 4 2 - - 4,0 -
25.02.2020 10:00:00 10,9 7,4 2 1 - 1012,0 3,5 0,0
25.02.2020 09:00:00 10,0 8,0 2 1 - - 3,0 -
25.02.2020 08:00:00 10,0 8,0 2 1 NNW - 3,0 -
25.02.2020 07:00:00 8,9 7,5 2 1 - 1013,0 3,0 -
25.02.2020 06:00:00 9,0 7,0 2 1 ENE - 3,0 -
25.02.2020 05:00:00 10,0 8,0 4 2 NNE - 4,0 -
25.02.2020 04:00:00 9,5 7,6 4 2 N 1014,3 4,0 0,0
25.02.2020 03:00:00 9,0 7,0 4 2 N - 5 -
25.02.2020 02:00:00 10,0 7,0 2 1 - - 5 -
25.02.2020 01:00:00 9,9 7,2 4 2 - 1016,9 5 -
25.02.2020 00:00:00 10,0 7,0 5 3 W - 5 -
24.02.2020 23:00:00 10,0 7,0 2 1 - - 5 -
24.02.2020 22:00:00 9,2 6,9 4 2 - 1018,2 5 0,0
24.02.2020 21:00:00 9,0 7,0 5 3 ESE - 6 -
24.02.2020 20:00:00 9,0 6,0 9 5 ESE - 6 -
24.02.2020 19:00:00 10,6 6,2 8 4 E 1018,5 5 -
24.02.2020 18:00:00 12,0 7,0 13 7 ESE - 5 -
24.02.2020 17:00:00 14,0 7,0 16 9 SSE - 5 -
24.02.2020 16:00:00 14,8 7,8 15 8 SE 1018,2 6 0,0
24.02.2020 15:00:00 16,0 8,0 13 7 SE - 8 -
24.02.2020 14:00:00 16,0 9,0 9 5 S - 8 -
24.02.2020 13:00:00 16,0 7,9 9 5 S 1019,5 10 -
24.02.2020 12:00:00 15,0 8,0 9 5 SSW - 10 -
24.02.2020 11:00:00 15,0 7,0 11 6 SW - 10 -
24.02.2020 10:00:00 14,3 6,7 8 4 - 1019,5 10 0,0
24.02.2020 09:00:00 9,0 5,0 8 4 NW - 10 -
24.02.2020 08:00:00 10,0 5,0 15 8 W - 8 -
24.02.2020 07:00:00 5,4 2,8 4 2 - 1018,4 7 -
24.02.2020 06:00:00 5,0 3,0 4 2 - - 6 -
24.02.2020 05:00:00 5,0 3,0 5 3 NNW - 6 -
24.02.2020 04:00:00 3,9 3,3 4 2 - 1018,6 6 0,0
24.02.2020 03:00:00 6,0 4,0 2 1 - - 5 -
24.02.2020 02:00:00 5,0 3,0 5 3 NW - 5 -
24.02.2020 01:00:00 5,0 3,1 4 2 - 1020,3 5 -
24.02.2020 00:00:00 7,0 5,0 4 2 NNW - 6 -
23.02.2020 23:00:00 9,0 5,0 8 4 NNW - 6 -
23.02.2020 22:00:00 8,5 5,6 8 4 NW 1021,7 8 0,0
23.02.2020 21:00:00 10,0 7,0 8 4 WNW - 8 -
23.02.2020 20:00:00 11,0 6,0 5 3 W - 10 -
23.02.2020 19:00:00 11,6 6,5 9 5 W 1022,6 10 -
23.02.2020 18:00:00 13,0 8,0 13 7 WSW - 10 -
23.02.2020 17:00:00 14,0 8,0 15 8 WSW - 10 -
23.02.2020 16:00:00 15,8 7,3 21 11 W 1023,0 8 0,0
23.02.2020 15:00:00 16,0 5,0 21 11 W - 8 -
23.02.2020 14:00:00 15,0 6,0 22 12 WSW - 8 -
23.02.2020 13:00:00 14,8 4,1 13 7 W 1025,4 8 -
23.02.2020 12:00:00 12,0 3,0 8 4 NW - 8 -
23.02.2020 11:00:00 11,0 3,0 13 7 W - 8 -
23.02.2020 10:00:00 8,6 2,5 8 4 N 1027,2 8 0,0
23.02.2020 09:00:00 5,0 1,0 5 3 - - 8 -
23.02.2020 08:00:00 4,0 1,0 8 4 N - 8 -
23.02.2020 07:00:00 3,5 0,6 8 4 N 1026,9 10 -
23.02.2020 06:00:00 3,0 0,0 8 4 N - 10 -
23.02.2020 05:00:00 4,0 1,0 5 3 N - 10 -
23.02.2020 04:00:00 3,7 1,0 5 3 N 1027,5 10 0,0
23.02.2020 03:00:00 4,0 1,0 4 2 - - 10 -
23.02.2020 02:00:00 5,0 1,0 5 3 N - 10 -
23.02.2020 01:00:00 5,4 0,9 4 2 N 1030,0 10 -
23.02.2020 00:00:00 6,0 2,0 9 5 N - 10 -
22.02.2020 23:00:00 6,0 1,0 8 4 N - 10 -
22.02.2020 22:00:00 6,2 2,0 4 2 N 1031,5 10 0,0
22.02.2020 21:00:00 7,0 2,0 4 2 - - 10 -
22.02.2020 20:00:00 8,0 2,0 8 4 N - 10 -
22.02.2020 19:00:00 8,0 1,9 2 1 - 1031,4 8 -
22.02.2020 18:00:00 12,0 1,0 5 3 SSW - 8 -
22.02.2020 17:00:00 13,0 1,0 8 4 S - 10 -
22.02.2020 16:00:00 13,2 1,8 11 6 SSW 1031,2 10 0,0
22.02.2020 15:00:00 13,0 1,0 11 6 SSW - 10 -
22.02.2020 14:00:00 13,0 1,0 9 5 SW - 10 -
22.02.2020 13:00:00 13,0 0,3 8 4 - 1032,3 10 -
22.02.2020 12:00:00 13,0 2,0 2 1 - - 10 -
22.02.2020 11:00:00 12,0 1,0 2 1 - - 10 -
22.02.2020 10:00:00 9,0 0,4 5 3 NNE 1032,9 10 0,0
22.02.2020 09:00:00 6,0 0,0 8 4 N - 10 -
22.02.2020 08:00:00 3,0 -1,0 11 6 N - 10 -
22.02.2020 07:00:00 3,0 -0,9 13 7 N 1031,0 10 -
22.02.2020 06:00:00 3,0 -1,0 9 5 N - 10 -
22.02.2020 05:00:00 3,0 -1,0 8 4 N - 10 -
22.02.2020 04:00:00 3,3 -0,5 9 5 NNE 1029,8 10 0,0
22.02.2020 03:00:00 4,0 0,0 13 7 N - 10 -
22.02.2020 02:00:00 3,0 0,0 11 6 N - 10 -
22.02.2020 01:00:00 3,7 -0,1 11 6 N 1029,2 10 -
22.02.2020 00:00:00 4,0 0,0 9 5 N - 10 -
21.02.2020 23:00:00 - - - - - - - -
21.02.2020 22:00:00 - - - - - - - -
21.02.2020 21:00:00 - - - - - - - -
21.02.2020 20:00:00 6,0 0,0 5 3 NNE - 10 -
21.02.2020 19:00:00 7,0 -0,4 4 2 - 1025,6 10 -
21.02.2020 18:00:00 10,0 -1,0 9 5 ESE - 10 -
21.02.2020 17:00:00 12,0 -1,0 8 4 SE - 10 -
21.02.2020 16:00:00 13,0 -1,5 9 5 SE 1023,7 10 0,0
21.02.2020 15:00:00 13,0 -1,0 9 5 SE - 10 -

tt = temperature
td = dewpoint
ff = wind speed
dd = wind direction
ppp = reduced air pressure
vv = visibility
rr = precipitation

Next stations